User: anonymous   Login
Location: Brno
(49.2000°N, 16.6330°E)
Time: 19:32:54
(UTC+01:00)
Language:

Cosmos 1603 - Orbit

View from above orbital plane
View from above orbital plane
View from above satellite
View from above satellite

Ground track
Ground track

The orbit data is extracted from the following two-line orbital elements,

1 15333U 84106A   15028.83572171 -.00000244  00000-0 -10344-3 0  1836
2 15333 071.0275 114.7585 0016969 090.8948 047.8645 14.13980485565237
Epoch (UTC): 28 January 2015 20:03:26
Eccentricity: 0.0016969
inclination: 71.0275°
perigee height: 833 km
apogee height: 858 km
right ascension of ascending node: 114.7585°
argument of perigee: 90.8948°
revolutions per day: 14.13980485
mean anomaly at epoch: 47.8645°
orbit number at epoch: 56523

The dashed part of the orbit path shows where the satellite is in the earth's shadow,  

DLR